Погода в Городке

Россия / Новгородская область     58°02′41″N   31°36′48″E
темп.,
°C
ветер,
м/с
пор.,
м/с
влажн.,
%
обл.,
%
осадки,
мм/ч
давл.,
гПа
погр.,
м
22 апреля, чт
чт2200:00+3ю268895 0.0 1004122
03:00+5ю3893100 0.1 1004204
06:00+3ю379822 0.1 1005171
09:00+8ююз357512 0.1 1006401
12:00+13юз464764 0.0 10071269
15:00+15юз4740100 0.0 10072436
18:00+14ююв255175 0.0 1007657
21:00+10ю1277100 0.3 100669
23 апреля, пт
пт2300:00+7юз379477 1.1 1006332
03:00+6ю2688100 1.1 1007315
06:00+5ююз3789100 0.0 1006459
09:00+7ююз5865100 0.0 10071301
12:00+9юз6104798 0.1 10082218
15:00+8юз594745 0.1 10091846
18:00+8ююз58485 0.1 10091842
21:00+4ююз386910 0.1 1009297
24 апреля, сб
сб2400:00+2ююз27885 0.0 1009194
03:000юз25925 0.0 1009140
06:00−1юз25945 0.0 1009144
09:00+4юз35625 0.0 1008801
12:00+7ююз3543100 0.0 10072018
15:00+8юз564398 0.1 10061987
18:00+5ююз4565100 0.6 10061071
21:00+2ююз379173 0.8 1006311
25 апреля, вс
вс2500:00+2зюз4895100 0.3 1006468
03:00+1юз379184 0.4 1006412
06:000ююз3692100 0.0 1005282
09:00+2юз3585100 0.0 1006566
12:00+5зюз3467100 0.2 10061205
15:00+6зюз3459100 0.8 10071313
18:00+6зюз345699 0.1 10071246
21:00+2юз228119 0.2 100824
26 апреля, пн
пн2600:000ююз23925 0.0 100947
03:00−1ююз22965 0.0 100945
06:00−1юз249611 0.0 1010120
09:00+3зюз3477100 0.0 1010793
12:00+4зюз2371100 0.0 1011780
15:00+6з445792 0.1 10111263
18:00+5з356083 0.0 1011914
21:00+1з2379100 0.0 101150